Volver al catálogo

INMARSAT 5-F2

ActivoComunicacionesGEO
NORAD 40384·PAYLOAD·🇮🇲 IM

Lanzado Feb 1, 2015 desde Baikonur Cosmodrome

Loading…

TLE

ActualizadoSource: Space-Track

Época: Sep 14, 2026, 11:49 UTC

1 40384U 15005A   26257.49297522 -.00000293  00000-0  00000-0 0  9997
2 40384   0.0185 154.0042 0000664   4.7167 317.2085  1.00271835 41897

Sigue INMARSAT 5-F2 en tiempo real con AllMySat

Download on the App Store